Voltar ao catálogo

ONEWEB-0641

AtivoComunicaçõesPO
NORAD 55805·PAYLOAD·🇬🇧 United Kingdom

Lançado Mar 9, 2023 de Cape Canaveral Space Force Station

Loading…

Próximas Passagens (próximas 24 horas)

TLE

AtualizadoSource: CelesTrak SupGP

Época: Sep 14, 2026, 14:10 UTC

1 55805C 23029K   26257.59081435  .00000062  00000+0  15572-3 0  2573
2 55805  87.9107 287.1593 0002036  91.5150  22.5734 13.19724941    19

Acompanhe ONEWEB-0641 em tempo real com AllMySat

Download on the App Store